loading
|

STARLINK-11179, 60190

Orbit data source: Space-Track

STARLINK-11179, 60190 is a payload satellite owned by SpaceX/Seattle (US) in LEO that was launched on Wed, 03 Jul 2024 UTC via an FALCON 9 launch vehicle from the Air Force Eastern Test Range (AFETR). Payloads include a variety of satellites, spacecraft, and rockets equipped with specific instruments for various scientific and technological missions. These include communications satellites like Starlink; space stations such as the ISS; scientific satellites like the Hubble; Earth observation satellites from companies like Planet Labs, Umbra, and HawkEye 360; GPS; miniature CubeSats for education and research; and military/defense satellites.

Loading next visibility...
Loading greatness...
STARLINK-11179 details
Identifier
60190, 2024-124H
Orbit
LEO
Last TLE update12 hours ago
Origin
Flag of USSpaceX/Seattle (US)
ManufacturerSpaceX/Seattle
Mission statusOperational
MissionUnknown
Bus & MotorSTARLINK V2M, Unknown motor
Mass750 kg wet, ~700 kg dry
Launch date (UTC)
2024-07-03 (3 months ago)
Launch vehicle
FALCON 9
Launch site
Air Force Eastern Test Range (AFETR)
Object type
Payload
Rocket body
Debris
Radar Cross SectionLarge (>1 m²)

Expand to show TLE details & history

TLE from 12 hours ago
0 STARLINK-11179
1 60190U 24124H   24261.38504160  .00000320  00000-0  74979-5 0  9997
2 60190  53.1572 295.1649 0001117  53.9524 306.1597 15.69714299 11988
Epoch: 2024-09-17T09:14Z
Definitive object data (Epoch: 2024-09-17T09:14:27.594Z)
Latitude-0.00003°
Longitude159.74944°
Altitude360.185 km
Speed7.695 km/s
True Right ascension19h 40m 39s
True Declination0° 00' 00"
Sunlit
Object was in full shadow at TLE epoch
Predictive object data (real-time)
Latitude-47.02901°
Longitude104.1843°
Altitude376.145 km
Speed7.683 km/s
Apparent Right ascension21h 25m 09s
Apparent Declination-74° 46' 03"
Sunlit
Object is in daylight
Predictive observer data (real-time)
Local Sidereal Time13:59:51
Azimuth160.171° S
Elevation-43.821°
Doppler factor1
Orbital elements
Apogee360.728 km
Perigee359.223 km
Semi-major axis6,738.113 km
Eccentricity0.0001117
Inclination53.1572°
RAAN295.1649°
Arg. of periapsis53.9524°
True anomaly306.14936°
Mean anomaly306.1597°
Eccentric anomaly306.15453°
Mean motion3.92406 °/min
BSTAR0.0000074979
Period91.74 mins
No data available

STARLINK-11179 Visibility forecast

Observer location: 39.9160978°, -105.1181434

STARLINK-11179 is not visible in the next 10 days
Span
Click to sort rows by Start time (UTC) header in descending order
Start Az.
Max El. time (UTC)
Max El. Az.
Max El.
End time (UTC)
End Az.